Change the Weather History Date:

Saturday, December 1, 2012

  Actual Average Record
Temperature  
Mean Temperature 48 °F 36 °F  
Max Temperature 62 °F 45 °F 66 °F (1962)
Min Temperature 33 °F 28 °F 4 °F (1958)
Degree Days  
Heating Degree Days 18 28  
Month to date heating degree days 28  
Since 1 July heating degree days 1106  
Cooling Degree Days 0 0  
Month to date cooling degree days 0  
Year to date cooling degree days 993  
Moisture  
Dew Point 42 °F    
Average Humidity 72    
Maximum Humidity 96    
Minimum Humidity 55    
Precipitation  
Precipitation 0.00 in 0.09 in 0.69 in (1977)
Month to date precipitation 0.00 0.09  
Year to date precipitation 25.14 42.20  
Sea Level Pressure  
Sea Level Pressure 30.14 in    
Wind  
Wind Speed 8 mph (SSE)    
Max Wind Speed 18 mph    
Max Gust Speed 24 mph    
Visibility 9 miles    
Events      
T = Trace of Precipitation, MM = Missing Value Source: NWS Daily Summary

Daily Weather History Graph

Daily Weather History Graph

Search for Another Location

Airport or City:

Trip Planner

Search our weather history database for the weather conditions in past years. The results will help you decide how hot, cold, wet, or windy it might be!

Date:

Astronomy

Dec. 01, 2012 Rise Set
Actual Time 7:50 AM EST 5:25 PM EST
Civil Twilight 7:21 AM EST 5:55 PM EST
Nautical Twilight 6:47 AM EST 6:29 PM EST
Astronomical Twilight 6:15 AM EST 7:01 PM EST
Moon 8:15 PM EST (12/1) 10:03 AM EST (12/1)
Length of Visible Light 10h 34m
Length of Day
9h 35m
Waning Gibbous, 92% of the Moon is Illuminated
Dec 1
Waning Gibbous
Dec 6
Last Quarter
Dec 13
New
Dec 20
First Quarter
Dec 28
Full

Hourly Weather History & Observations

Time (EST) Temp. Windchill Dew Point Humidity Pressure Visibility Wind Dir Wind Speed Gust Speed Precip Events Conditions
12:53 AM 34.0 °F 29.8 °F 30.9 °F 89% 30.17 in 8.0 mi ENE 4.6 mph - N/A   Clear
1:53 AM 36.0 °F 33.3 °F 34.0 °F 93% 30.17 in 8.0 mi SE 3.5 mph - N/A   Clear
2:53 AM 34.0 °F 31.0 °F 32.0 °F 92% 30.18 in 7.0 mi ESE 3.5 mph - N/A   Clear
3:53 AM 37.0 °F 34.5 °F 34.0 °F 89% 30.19 in 7.0 mi SSE 3.5 mph - N/A   Clear
4:53 AM 37.0 °F 33.3 °F 35.1 °F 93% 30.18 in 5.0 mi SSE 4.6 mph - N/A   Clear
6:00 AM 39.2 °F 35.9 °F 35.6 °F 87% 30.18 in 6.0 mi SSE 4.6 mph - N/A   Mostly Cloudy
6:53 AM 44.1 °F 41.5 °F 39.9 °F 85% 30.19 in 7.0 mi SSE 4.6 mph - N/A   Overcast
7:53 AM 46.9 °F - 42.1 °F 83% 30.19 in 9.0 mi South 4.6 mph - N/A   Overcast
8:26 AM 48.2 °F - 42.8 °F 82% 30.19 in 8.0 mi SSE 3.5 mph - N/A   Overcast
8:53 AM 48.9 °F - 43.0 °F 80% 30.19 in 8.0 mi SE 5.8 mph - N/A   Overcast
9:53 AM 53.1 °F - 45.0 °F 74% 30.19 in 9.0 mi SSE 8.1 mph - N/A   Overcast
10:53 AM 57.0 °F - 45.0 °F 64% 30.19 in 10.0 mi South 11.5 mph - N/A   Mostly Cloudy
11:53 AM 57.9 °F - 45.0 °F 62% 30.17 in 10.0 mi South 15.0 mph 20.7 mph N/A   Mostly Cloudy
12:53 PM 60.1 °F - 45.0 °F 57% 30.14 in 10.0 mi South 13.8 mph 20.7 mph N/A   Mostly Cloudy
1:53 PM 60.1 °F - 45.0 °F 57% 30.12 in 10.0 mi South 11.5 mph - N/A   Mostly Cloudy
2:53 PM 61.0 °F - 46.9 °F 60% 30.09 in 10.0 mi South 12.7 mph - N/A   Mostly Cloudy
4:53 PM 59.0 °F - 46.0 °F 62% 30.09 in 10.0 mi South 11.5 mph - N/A   Clear
5:53 PM 57.9 °F - 46.0 °F 65% 30.08 in 10.0 mi SSE 11.5 mph - N/A   Clear
6:53 PM 57.0 °F - 46.0 °F 67% 30.08 in 10.0 mi SSE 10.4 mph - N/A   Scattered Clouds
7:53 PM 57.9 °F - 46.0 °F 65% 30.06 in 10.0 mi South 11.5 mph - N/A   Overcast
8:53 PM 60.1 °F - 45.0 °F 57% 30.06 in 10.0 mi SSE 13.8 mph - N/A   Overcast
9:53 PM 60.1 °F - 44.1 °F 55% 30.05 in 10.0 mi South 17.3 mph 21.9 mph N/A   Overcast
10:53 PM 60.1 °F - 44.1 °F 55% 30.06 in 10.0 mi South 16.1 mph - N/A   Overcast
11:53 PM 59.0 °F - 44.1 °F 58% 30.05 in 10.0 mi South 12.7 mph 25.3 mph N/A   Overcast